Wind_Speed
59 53 46 38 32 27 23 16 12 17 23 31 42 53 62 72 88 110 134 155 149 145 140 135 115 108 103 96 84 77 85 84 78 80 73 66 61 61
54 48 41 35 29 24 21 13 12 18 25 35 47 57 67 79 97 123 147 158 150 145 140 129 116 111 106 103 97 75 86 78 80 78 75 70 64 61
49 43 36 31 26 21 18 12 13 19 28 40 51 61 73 85 106 135 158 157 154 150 141 126 119 120 106 99 94 79 86 83 82 81 78 72 63 61
44 38 32 29 25 18 15 10 15 20 31 44 55 65 76 91 116 147 163 160 157 149 139 123 122 120 113 105 100 85 92 83 84 83 78 72 63 55
39 35 29 26 23 16 11 8 15 21 34 47 58 68 79 98 127 153 159 163 155 149 134 126 124 117 116 111 104 94 87 88 89 85 77 77 65 60
38 34 29 25 20 14 8 7 15 24 37 49 62 71 82 106 135 160 160 166 157 151 141 126 123 116 113 109 104 97 87 88 89 86 81 80 75 67
36 32 27 23 17 11 6 8 17 28 40 52 64 74 87 113 138 160 162 165 156 146 143 132 120 112 112 114 104 99 91 89 88 85 84 81 75 65
34 30 26 22 16 9 3 10 20 30 42 55 66 76 93 118 145 161 164 163 153 148 144 137 128 118 116 114 103 97 94 89 83 86 82 80 75 66
35 30 25 20 14 6 3 12 22 33 44 56 67 78 100 121 147 164 166 164 152 147 146 136 130 130 117 112 101 97 92 89 88 85 84 81 75 68
32 27 24 18 12 3 4 13 24 36 46 56 69 81 102 125 150 163 163 160 150 148 140 138 131 132 122 113 109 101 98 90 90 86 86 80 76 71
30 25 20 16 10 2 7 15 26 38 47 56 69 83 103 126 152 162 160 153 152 145 143 131 130 128 118 113 108 103 100 88 90 89 87 83 81 77
28 24 19 14 8 5 10 18 29 40 48 57 70 86 104 127 152 160 158 147 145 143 145 133 131 123 116 111 110 100 93 94 87 89 90 85 82 79
26 22 17 12 9 10 13 21 31 39 48 58 71 88 104 126 152 163 156 147 143 142 139 139 123 126 115 111 108 100 96 95 90 90 89 87 85 82
23 19 14 12 11 13 16 23 30 40 49 60 72 90 104 127 153 162 159 149 141 145 136 130 127 119 116 112 107 104 101 97 93 90 89 90 86 82
20 16 14 12 14 15 18 25 32 41 51 61 73 90 104 129 151 163 158 151 146 141 138 127 126 117 115 106 109 104 102 97 95 89 89 87 82 80
15 15 15 13 16 18 21 28 34 42 51 59 74 89 104 130 146 160 157 152 144 141 136 129 124 122 113 108 107 106 102 97 94 93 90 88 79 77
20 17 15 13 17 19 22 29 36 43 50 58 75 88 103 126 144 155 157 152 148 141 134 132 129 123 118 112 110 105 100 100 99 94 92 88 88 82
20 14 13 13 17 20 22 30 37 43 48 58 73 84 100 123 144 154 154 153 146 144 141 135 131 131 123 116 114 108 102 104 101 96 93 93 89 86
16 13 11 14 16 20 23 30 38 42 47 58 71 84 99 122 142 152 153 148 144 143 141 139 135 131 123 119 114 108 103 105 105 102 100 94 90 94
15 11 11 13 17 19 23 27 35 40 46 57 68 81 97 116 141 149 154 152 146 142 141 141 135 130 127 120 120 112 108 107 107 107 102 97 95 91
14 10 11 13 18 21 22 25 31 36 44 56 66 77 91 107 127 146 152 152 149 142 140 141 139 135 129 126 119 114 112 109 108 107 108 106 98 97
13 10 11 13 17 21 23 23 28 34 41 51 64 73 86 101 121 139 149 148 152 146 141 139 140 136 132 127 122 118 117 113 110 106 109 109 106 101
13 10 11 14 16 19 23 25 25 31 38 47 60 69 78 94 111 133 139 147 148 147 147 140 138 136 131 131 127 123 118 114 113 110 106 105 105 105
Wind_Direction
327 327 326 324 319 310 300 288 254 223 202 188 181 178 175 174 167 166 165 163 164 163 162 161 163 163 156 163 167 181 186 191 189 192 188 184 188 190
329 328 327 323 318 310 299 283 233 212 193 182 178 176 172 172 167 167 164 163 165 163 161 162 163 166 164 162 168 173 184 180 184 191 183 185 187 190
331 327 326 321 318 309 293 272 220 201 187 179 177 174 171 170 168 167 165 166 163 161 163 162 165 166 163 165 167 174 183 183 180 185 184 182 188 190
330 328 328 321 318 308 291 254 212 191 182 178 176 174 172 169 169 167 167 166 163 166 164 165 168 169 167 167 169 173 179 182 180 183 181 182 188 188
333 332 331 324 319 311 289 235 203 183 181 178 175 174 172 170 170 169 168 166 167 164 162 163 162 163 167 168 173 173 179 181 180 183 182 185 187 192
337 335 332 327 322 312 289 213 193 178 179 176 175 174 173 171 171 170 168 167 169 166 165 162 164 165 166 169 170 175 180 182 183 183 186 188 186 189
338 336 333 331 328 316 287 191 181 174 178 176 175 174 173 172 172 171 170 171 172 170 169 170 165 163 169 171 173 176 180 182 181 184 186 189 186 187
342 342 338 337 335 325 267 179 174 172 177 175 175 174 174 173 173 173 170 173 172 172 172 173 172 170 170 172 173 175 177 178 182 185 187 188 187 188
344 345 342 343 344 334 207 173 171 171 176 175 174 174 174 174 174 175 174 177 173 172 173 173 171 175 171 173 174 174 178 181 182 185 187 188 191 189
346 346 346 349 354 357 159 166 168 170 174 176 173 174 174 175 175 175 174 177 174 175 174 176 173 173 174 173 174 178 179 183 184 185 188 196 194 193
350 351 353 1 7 65 145 159 166 169 172 174 173 174 175 175 176 177 175 176 178 174 176 172 174 174 173 175 177 178 179 181 185 184 187 193 195 194
354 358 2 11 28 81 133 153 164 168 170 172 171 174 175 175 177 177 177 177 177 178 178 176 177 175 174 176 177 174 177 180 184 187 189 192 199 195
357 3 10 25 54 87 126 148 162 166 168 171 171 174 176 176 177 177 178 176 177 177 178 180 175 178 177 180 176 177 178 183 186 188 190 193 197 199
1 8 24 40 70 94 124 145 158 163 165 169 171 174 176 176 178 179 181 180 178 179 178 178 180 179 180 181 179 182 181 185 187 188 191 194 196 198
6 19 41 53 79 100 123 141 154 160 164 168 171 174 177 177 180 180 183 181 181 181 182 180 179 180 183 184 184 183 185 187 187 187 192 196 196 195
23 38 53 64 88 105 124 142 152 158 164 167 171 174 177 179 181 183 182 183 183 184 183 182 183 184 184 184 186 188 187 186 188 189 191 196 196 201
34 43 61 75 95 111 128 144 153 158 163 167 171 174 178 181 184 184 185 186 187 188 185 186 187 187 188 189 188 188 190 188 189 190 191 194 194 201
31 44 75 89 105 117 133 146 154 159 163 167 171 175 179 181 184 185 186 188 189 190 189 190 190 189 191 193 192 192 194 193 193 192 194 198 200 201
28 50 81 106 117 124 136 149 155 160 164 168 172 176 181 184 185 186 188 190 189 192 192 192 193 194 193 197 194 194 196 195 195 195 197 200 203 204
31 60 91 116 128 134 142 152 160 163 166 170 173 176 182 185 188 188 190 190 192 193 194 195 195 195 196 197 198 198 199 197 199 197 197 201 204 209
33 72 101 126 136 142 149 156 164 169 171 173 175 178 183 187 189 191 191 193 193 195 198 197 199 199 200 201 204 200 204 202 204 204 204 203 205 208
37 72 108 131 141 145 151 158 166 171 175 177 178 180 184 188 190 192 194 195 197 198 199 199 201 202 201 203 204 206 206 207 206 208 209 209 212 213
38 68 112 127 142 146 151 156 165 171 177 179 182 183 186 188 192 195 197 197 199 202 201 203 202 204 205 205 207 208 211 209 211 213 213 216 215 217
Height
10149 10137 10128 10121 10115 10111 10108 10107 10108 10110 10115 10122 10133 10146 10161 10179 10198 10218 10240 10265 10293 10320 10345 10370 10392 10414 10433 10457 10485 10509 10525 10547 10569 10587 10599 10616 10632 10646
10139 10129 10120 10113 10108 10104 10102 10102 10103 10105 10111 10120 10130 10142 10158 10178 10197 10217 10241 10265 10295 10321 10345 10366 10393 10413 10431 10449 10471 10502 10525 10544 10562 10579 10592 10607 10623 10639
10131 10122 10114 10106 10102 10099 10097 10098 10099 10102 10108 10117 10127 10141 10156 10177 10197 10215 10243 10265 10294 10316 10339 10362 10382 10405 10428 10452 10472 10495 10522 10540 10555 10569 10585 10600 10617 10633
10124 10116 10109 10102 10097 10095 10093 10094 10095 10100 10106 10115 10126 10140 10155 10176 10197 10217 10240 10267 10292 10309 10334 10355 10376 10399 10419 10444 10469 10486 10512 10529 10546 10564 10578 10593 10613 10628
10117 10109 10103 10097 10092 10090 10089 10090 10092 10097 10104 10114 10125 10139 10155 10175 10196 10218 10241 10267 10287 10313 10335 10354 10375 10398 10419 10442 10462 10484 10502 10521 10537 10557 10573 10590 10606 10624
10111 10103 10097 10092 10088 10086 10085 10087 10089 10095 10103 10113 10124 10138 10156 10176 10196 10219 10243 10268 10286 10308 10330 10349 10372 10394 10418 10439 10460 10477 10498 10520 10536 10551 10570 10587 10600 10614
10106 10099 10093 10088 10084 10082 10082 10084 10087 10093 10101 10112 10123 10139 10156 10177 10198 10222 10244 10266 10286 10306 10328 10349 10368 10385 10411 10432 10451 10472 10492 10515 10535 10550 10565 10583 10597 10610
10102 10096 10089 10084 10080 10079 10079 10082 10086 10091 10100 10111 10123 10138 10156 10178 10200 10224 10247 10270 10286 10302 10329 10345 10363 10389 10404 10425 10447 10467 10488 10509 10530 10548 10562 10579 10593 10607
10098 10093 10087 10082 10079 10078 10078 10080 10085 10091 10099 10111 10124 10140 10158 10182 10202 10225 10248 10268 10287 10309 10324 10343 10363 10385 10405 10425 10446 10466 10487 10507 10524 10542 10558 10574 10589 10605
10097 10090 10085 10081 10078 10077 10078 10080 10085 10091 10100 10111 10124 10141 10162 10185 10208 10230 10250 10270 10288 10311 10330 10347 10368 10388 10407 10424 10442 10463 10482 10502 10519 10536 10553 10570 10585 10599
10096 10090 10085 10081 10079 10078 10079 10081 10086 10092 10102 10115 10129 10145 10165 10188 10211 10232 10256 10271 10295 10312 10332 10351 10371 10388 10406 10426 10441 10460 10481 10499 10517 10532 10550 10565 10578 10593
10095 10091 10086 10083 10080 10080 10080 10083 10088 10095 10104 10117 10132 10150 10169 10191 10214 10238 10259 10276 10300 10318 10335 10353 10372 10390 10407 10426 10441 10458 10477 10496 10511 10527 10542 10559 10575 10587
10095 10092 10088 10085 10083 10083 10084 10086 10092 10100 10110 10123 10137 10154 10174 10196 10219 10244 10263 10282 10304 10324 10337 10358 10374 10392 10408 10425 10441 10457 10474 10493 10507 10523 10538 10553 10567 10583
10097 10094 10091 10088 10087 10087 10089 10091 10097 10106 10117 10129 10142 10160 10179 10201 10224 10247 10266 10286 10306 10325 10342 10359 10377 10393 10409 10423 10441 10457 10470 10486 10503 10519 10533 10548 10562 10577
10100 10097 10094 10093 10092 10093 10094 10098 10104 10113 10123 10135 10149 10165 10184 10205 10226 10250 10269 10290 10310 10326 10345 10362 10376 10391 10407 10422 10440 10453 10469 10485 10499 10514 10531 10547 10558 10572
10104 10101 10099 10099 10099 10100 10102 10105 10111 10120 10131 10143 10157 10173 10191 10210 10229 10251 10273 10291 10310 10330 10345 10362 10376 10392 10405 10420 10438 10451 10466 10483 10498 10509 10524 10541 10555 10564
10107 10105 10104 10105 10106 10108 10110 10114 10119 10127 10137 10149 10165 10180 10197 10215 10234 10254 10274 10293 10310 10329 10344 10362 10376 10391 10405 10418 10434 10451 10465 10474 10489 10502 10516 10531 10544 10554
10111 10110 10110 10110 10112 10115 10118 10122 10128 10136 10145 10157 10170 10185 10200 10217 10237 10257 10276 10295 10309 10329 10344 10359 10374 10386 10401 10415 10431 10446 10457 10471 10485 10499 10513 10525 10535 10549
10115 10114 10115 10116 10118 10122 10126 10130 10136 10143 10152 10163 10175 10189 10204 10220 10239 10260 10275 10295 10311 10327 10344 10356 10370 10386 10400 10412 10430 10442 10453 10468 10479 10492 10506 10517 10527 10539
10118 10118 10119 10121 10123 10127 10132 10138 10143 10149 10156 10166 10179 10192 10207 10224 10241 10257 10275 10292 10308 10324 10339 10354 10368 10383 10397 10409 10422 10436 10447 10462 10474 10482 10497 10510 10521 10529
10122 10121 10122 10124 10128 10131 10136 10142 10148 10154 10161 10169 10180 10192 10206 10221 10238 10256 10273 10288 10304 10320 10334 10350 10363 10377 10392 10405 10418 10431 10441 10453 10467 10478 10488 10500 10510 10518
10126 10125 10125 10127 10131 10135 10139 10144 10150 10157 10164 10172 10182 10193 10205 10219 10234 10251 10269 10283 10300 10316 10329 10345 10358 10372 10385 10399 10412 10425 10435 10449 10459 10468 10478 10492 10501 10509
10129 10128 10129 10130 10134 10139 10142 10146 10151 10158 10165 10173 10183 10193 10205 10218 10232 10249 10262 10278 10295 10309 10323 10334 10350 10366 10381 10389 10403 10414 10427 10439 10450 10460 10470 10482 10492 10501